Regional Weather Roundup
Issued by NWS Wilmington, NC

Home | Current Version | Previous Version | Text Only | Print | Product List | Glossary On
Versions: 1 2 3 4 5 6 7 8 9 10 11 12 13 14 15 16 17 18 19 20 21 22 23 24 25 26 27 28 29 30 31 32 33 34 35 36 37 38 39 40 41 42 43 44 45 46 47 48 49 50
000
ASUS42 KILM 222210
RWRILM
RWRILM
REGIONAL HOURLY WEATHER ROUNDUP
NATIONAL WEATHER SERVICE WILMINGTON NC
600 PM EDT MON SEP 22 2014

NOTE: "FAIR" INDICATES FEW OR NO CLOUDS BELOW 12,000 FEET WITH NO
SIGNIFICANT WEATHER AND/OR OBSTRUCTIONS TO VISIBILITY.

...............WFO WILMINGTON COUNTY WARNING AREA...............

......COASTAL NC AND SC COUNTIES......

CITY           SKY/WX    TMP DP  RH WIND       PRES   REMARKS
WILMINGTON     PTSUNNY   77  60  55 N5        30.03R
SOUTHPORT      RAIN      66  62  87 E5        30.04R
N MYRTLE BEACH LGT RAIN  70  65  84 CALM      30.03R
MYRTLE BEACH   LGT RAIN  72  63  73 N9        30.04R

......INLAND NC AND SC COUNTIES.......

CITY           SKY/WX    TMP DP  RH WIND       PRES   REMARKS
LUMBERTON      CLOUDY    75  63  66 CALM      30.02R
ELIZABETHTOWN  PTSUNNY   75  61  62 CALM      30.03R
WHITEVILLE     PTSUNNY   73  62  68 CALM      30.02R
FLORENCE       LGT RAIN  73  64  73 S3        30.04R
DARLINGTON     CLOUDY    66  61  82 N7        30.04R

....................REST OF NORTH CAROLINA......................

.........EASTERN NC.........

CITY           SKY/WX    TMP DP  RH WIND       PRES   REMARKS
CAPE HATTERAS  MOSUNNY   72  62  71 NE9       30.02S
JACKSONVILLE   SUNNY     79  55  44 CALM      30.02R
MOREHEAD CITY  SUNNY     78  62  57 NE5       30.02R
KENANSVILLE    SUNNY     73  58  59 CALM      30.04R
NEW BERN       MOSUNNY   78  59  51 N3        30.03R
ELIZABETH CITY SUNNY     73  57  57 E8        30.04R

.........CENTRAL NC.........

CITY           SKY/WX    TMP DP  RH WIND       PRES   REMARKS
RALEIGH DURHAM PTSUNNY   71  54  54 CALM      30.06S
ROCKY MOUNT    MOSUNNY   75  55  49 N6        30.04R
ROANOKE RAPIDS NOT AVBL
FAYETTEVILLE   PTSUNNY   75  57  53 N6        30.04R
HOFFMAN        PTSUNNY   72  52  49 NE5       30.06R

.........WESTERN NC.........

CITY           SKY/WX    TMP DP  RH WIND       PRES   REMARKS
CHARLOTTE      CLOUDY    72  54  53 NW6       30.07R
GREENSBORO     PTSUNNY   72  51  47 NE6       30.07R
HICKORY        NOT AVBL
BOONE          NOT AVBL
ASHEVILLE      NOT AVBL

.....................REST OF SOUTH CAROLINA.....................

.........EASTERN SC.........

CITY           SKY/WX    TMP DP  RH WIND       PRES   REMARKS
CHARLESTON     RAIN      69  66  90 N17G25    30.02R FOG
BEAUFORT MCAS  RAIN      70  67  90 E8        30.02F FOG
HILTON HEAD    NOT AVBL

.........CENTRAL SC.........

CITY           SKY/WX    TMP DP  RH WIND       PRES   REMARKS
COLUMBIA       LGT RAIN  71  61  70 VRB5      30.04R
ORANGEBURG     LGT RAIN  65  61  87 N6        30.04S
SUMTER SHAW    LGT RAIN  68  63  83 NW2       30.05R

.........WESTERN SC.........

CITY           SKY/WX    TMP DP  RH WIND       PRES   REMARKS
GREENVILLE     NOT AVBL
ROCK HILL      CLOUDY    72  57  59 CALM      30.07R
ANDERSON       MOSUNNY   74  59  59 SE6       30.04S
CLEMSON        NOT AVBL
GREENWOOD      PTSUNNY   72  58  61 MISG      30.07S


...................COASTAL AND OFFSHORE REPORTS..................

................LOCAL PIERS AND NC RESERVE................


STATION/POSITION TIME  SKY/WX   TEMP    WIND        PRES    VSBY
                                AIR SEA DIR/SP/G
                 (UTC)          (F)     (DEG/KT/KT) (MB)    (MI)
JOHNY MRCER PIER 2200            78 80   70/  6/  7 1016.1R
NC RESRV MASNBRO 2100            79      70/  5     1016.0S
OCEAN CREST PIER 2200            73 79   60/  8/  9 1015.8R
SPRINGMAID  PIER 2200            71 79  330/  5/  8 1017.0R


................COASTAL AND OFFSHORE BUOYS................


STATION/POSITION TIME  SKY/WX   TEMP    WIND        PRES    VSBY
                                AIR SEA DIR/SP/G
                 (UTC)          (F)     (DEG/KT/KT) (MB)    (MI)
DIMNDSHOAL 41025 2200            74     360/ 14/ 17 1016.2R
WVE H/P(F/S)=  4/ 8 WND WVE H/P(F/S)=  3/ 6 SWL H/P/D(F/S/D)=  3/150/ 8

CAPE LOOKOUT     2100            77      10/  8/ 10 1016.0R
ONSLOW BAY 41036 2200            78 82   40/ 10/ 12 1015.6R
WVE H/P(F/S)=  3/ 8 WND WVE H/P(F/S)=  2/ 3 SWL H/P/D(F/S/D)=  3/140/ 8

5 WRITEBCH 41038 2100            74 79   50/ 10/ 12   N/A
MASONBORO  41110 2200               79                N/A
WVE H/P(F/S)=  2/ 8 WND WVE H/P(F/S)=  2/ 8

WILM HARBR 41108 2200               79                N/A
WVE H/P(F/S)=  3/ 6 WND WVE H/P(F/S)=  3/ 6

27WRITEBCH 41037 2100            74 80   30/ 10/ 10 1015.3F
FRYING PAN 41013 NOT AVBL
SUNST NRSH 41024 2100            75      40/ 12/ 12 1015.5F
CAPRS NRSH 41029 2100            81     190/  8/ 10   N/A
EDISTO     41004 2200            81 82  230/ 10/ 10 1015.4R
WVE H/P(F/S)=  3/ 8 WND WVE H/P(F/S)=  2/ 4 SWL H/P/D(F/S/D)=  3/ 8



..........OFFSHORE BUOYS BEYOND 100 NM OFFSHORE...........
.....IN A TRIANGLE---HAT TO BERMUDA TO BAHAMAS TO HAT.....


STATION/POSITION TIME  SKY/WX   TEMP    WIND        PRES    VSBY
                                AIR SEA DIR/SP/G
                 (UTC)          (F)     (DEG/KT/KT) (MB)    (MI)
150E HAT   41001 NOT AVBL
W BERMUDA  41048 2105            82 81  210/  8/ 10 1017.9
WVE H/P(F/S)=  5/ 8 WND WVE H/P(F/S)=  2/ 4 SWL H/P/D(F/S/D)=  5/240/ 8

ATLANTIC S 41049 NOT AVBL
E BAHAMAS  41046 2131            84 85   70/ 12/ 14 1015.7S
WVE H/P(F/S)=  4/ 8 WND WVE H/P(F/S)=  2/ 5 SWL H/P/D(F/S/D)=  3/100/ 8

NE BAHAMAS 41047 2130            81 85   80/  6/ 10 1017.5S
WVE H/P(F/S)=  3/ 7 WND WVE H/P(F/S)=  2/ 3 SWL H/P/D(F/S/D)=  3/100/ 7

120E CANVRL41010 2200            80 84   90/  6/  8 1016.1S
WVE H/P(F/S)=  3/ 8 WND WVE H/P(F/S)=  2/ 3 SWL H/P/D(F/S/D)=  3/ 50/ 8


END


USA.gov is the U.S. government's official web portal to all federal, state and local government web resources and services.